Regional Weather Roundup
Issued by NWS

Home | Current Version | Previous Version | Graphics & Text | Print | Product List | Glossary Off
Versions: 1 2 3 4 5 6 7 8 9 10 11 12 13 14 15 16 17 18 19 20 21 22 23 24 25 26 27 28 29 30 31 32 33 34 35 36 37 38 39 40 41 42 43 44 45 46 47 48 49 50

000
ASUS43 KMPX 282010
RWRMN
WEATHER ROUNDUP FOR MINNESOTA
NATIONAL WEATHER SERVICE TWIN CITIES/CHANHASSEN MN
300 PM CDT SUN MAY 28 2017


NOTE: "FAIR" INDICATES FEW OR NO CLOUDS BELOW 12,000 FEET WITH NO
SIGNIFICANT WEATHER AND/OR OBSTRUCTIONS TO VISIBILITY. N/A MEANS
CURRENT SKY AND/OR WEATHER CONDITIONS ARE NOT AVAILABLE.

MNZ060>063-068>070-282100-
   Twin Cities Metro

CITY           SKY/WX    TMP DP  RH WIND       PRES   REMARKS
TWIN CITIES    CLOUDY    71  45  39 NW21      29.72F
ST PAUL        CLOUDY    68  46  45 W17G23    29.73S
CRYSTAL        CLOUDY    70  43  37 W16       29.71F
BLAINE         PTSUNNY   72  45  37 W16G28    29.71S
LAKEVILLE      CLOUDY    70  45  40 W16G28    29.74F
EDEN PRAIRIE   CLOUDY    72  44  36 W17G26    29.72F
SOUTH ST PAUL  CLOUDY    69  44  41 W12G18    29.72F
LAKE ELMO      FAIR      70  52  52 W15G24    29.73S
$$
MNZ001>005-007-008-013>017-022>024-027-028-282100-
   Northwest Minnesota

CITY           SKY/WX    TMP DP  RH WIND       PRES   REMARKS
BEMIDJI        PTSUNNY   61  49  64 W15G24    29.69F
HALLOCK        MOSUNNY   63  46  55 NW18G25   29.68F
ROSEAU         MOSUNNY   63  48  59 W12       29.66S
WARROAD        MOSUNNY   61  52  72 NW13G18   29.65F
THIEF RVR FALL LGT RAIN  54  50  86 W10       29.72F
CROOKSTON      LGT RAIN  54  54 100 NW6       29.74S
FOSSTON        PTSUNNY   57  46  67 W18G25    29.72S
DETROIT LAKES  MOSUNNY   63  43  48 NW21G28   29.75F
MOORHEAD       MOSUNNY   68  39  34 NW17G23   29.74F
PARK RAPIDS    PTSUNNY   63  48  58 NW16G23   29.71F
MAHNOMEN       MOCLDY    63  44  50 W15G22    29.71F
$$
MNZ006-009>011-018-025>026-282100-
   North Central Minnesota

CITY           SKY/WX    TMP DP  RH WIND       PRES   REMARKS
BAUDETTE       LGT RAIN  54  52  93 NW8       29.65S FOG
FLAG ISLAND    LGT RAIN  55  50  82 NW7       29.64S
INTL FALLS     CLOUDY    55  52  89 CALM      29.63S
WASKISH        CLOUDY    57  52  82 W10       29.66F
BIG FORK       LGT RAIN  52  50  93 CALM      29.67S
LONGVILLE      CLOUDY    54  50  87 W7        29.71S
GRAND RAPIDS   CLOUDY    57  52  83 W8        29.70S
CRANE LAKE     LGT RAIN  55  52  88 CALM      29.64S
COOK           CLOUDY    59  48  67 W8        29.63S
WALKER         MOCLDY    58  48  70 W13G21    29.69F THUNDER
$$
MNZ012-019>021-037-282100-
   Northeast Minnesota

CITY           SKY/WX    TMP DP  RH WIND       PRES   REMARKS
DULUTH         CLOUDY    62  48  60 W13G21    29.64R
ELY            RAIN      52  48  87 NW7       29.63R
HIBBING        CLOUDY    60  46  59 NW15      29.64R
EVELETH        CLOUDY    58  50  73 NE5       29.64R
DULUTH HARBOR  PTSUNNY   66  54  63 W10       29.63F
TWO HARBORS    RAIN      57  52  82 S3        29.62F
SILVER BAY     CLOUDY    57  52  82 SW5       29.63R
GRAND MARAIS     N/A     55  52  89 CALM      29.62F
G MARAIS ARPRT DRIZZLE   54  43  66 CALM      29.64F
$$
MNZ029>031-032-039>041-046>048-054>057-064-282100-
   West Central Minnesota

CITY           SKY/WX    TMP DP  RH WIND       PRES   REMARKS
FERGUS FALLS   SUNNY     66  48  52 NW20      29.74S
WHEATON        MOSUNNY   70  37  30 NW17G28   29.78F
MORRIS         MOSUNNY   72  43  35 NW26G35   29.76S
ALEXANDRIA     MOSUNNY   65  49  56 NW15      29.77F
ELBOW LAKE     FAIR      65  44  46 W22G30    29.76F
WADENA         MOSUNNY   61  48  63 NW15G24   29.73S
GLENWOOD       CLOUDY    64  50  59 W13       29.77F
APPLETON       MOSUNNY   73  36  25 NW18G32   29.77F
BENSON         MOSUNNY   73  39  29 NW23G29   29.78S
ORTONVILLE     MOSUNNY   72  39  30 W18G30    29.79S
MADISON        MOSUNNY   72  45  37 NW18G25   29.80F
WILLMAR        FAIR      72  45  37 W22G31    29.77F
$$
MNZ033>034-036-042>043-049>051-058-059-282100-
   Central Minnesota

CITY           SKY/WX    TMP DP  RH WIND       PRES   REMARKS
ST CLOUD       MOSUNNY   69  46  43 W22G30    29.71F
SAUK CENTRE    MOCLDY    60  49  68 W7        29.77S
PAYNESVILLE    LGT RAIN  56  49  77 NW15G35   29.80R
AITKIN         TSTM      57  50  77 NW6G16    29.70S
PINE RIVER     CLOUDY    55  50  82 NW6       29.75S
BRAINERD       LGT RAIN  60  51  72 NW23      29.73R
STAPLES        PTSUNNY   63  46  55 NW15G21   29.71F
LONG PRAIRIE   CLOUDY    57  48  72 SW8       29.76S
LITTLE FALLS   CLOUDY    61  46  59 NW13G24   29.73R
LITCHFIELD     MOSUNNY   72  46  40 NW16G26   29.76S
BUFFALO        PTSUNNY   70  42  35 W16G25    29.74S
MAPLE LAKE     PTSUNNY   71  49  45 NW14G22   29.74S
HUTCHINSON     PTSUNNY   72  46  39 W24G30    29.76F
$$
MNZ037-044-045-052-053-282100-
   East Central Minnesota

CITY           SKY/WX    TMP DP  RH WIND       PRES   REMARKS
PRINCETON      CLOUDY    70  48  46 W17       29.71S
MORA           CLOUDY    59  50  72 NW9       29.73S
CAMBRIDGE      MOSUNNY   68  50  52 W10G16    29.69S
RUSH CITY      CLOUDY    61  50  65 NW7       29.71R
MOOSE LAKE     RAIN      55  45  67 W12G31    29.69R
HINCKLEY       CLOUDY    59  50  72 NW10G20   29.71R
CLOQUET        CLOUDY    61  45  55 W10       29.66R
MCGREGOR       CLOUDY    54  52  94 W6        29.71F
$$
MNZ071>073-080-081-089-090-097-098-282100-
   Southwest Minnesota

CITY           SKY/WX    TMP DP  RH WIND       PRES   REMARKS
MONTEVIDEO     SUNNY     72  43  35 N14G25    29.79F
CANBY          PTSUNNY   69  43  39 W18G26    29.83S
MARSHALL       MOSUNNY   72  42  34 NW24G31   29.80F
REDWOOD FALLS  CLOUDY    71  43  36 NW18G25   29.78F
OLIVIA         MOSUNNY   70  43  37 W23G33    29.77F
PIPESTONE      MOSUNNY   72  30  21 NW22G32   29.85F
WINDOM         MOSUNNY   72  37  28 W23G29    29.82S
WORTHINGTON    PTSUNNY   70  41  34 W24G31    29.86S
JACKSON        MOSUNNY   70  37  30 NW16      29.84S
TRACY          MOSUNNY   73  43  33 NW22G30   29.82F
SLAYTON        PTSUNNY   70  39  31 W24G31    29.85S
$$
MNZ065>067-074>077-082>085-091>093-282100-
   South Central Minnesota

CITY           SKY/WX    TMP DP  RH WIND       PRES   REMARKS
MANKATO        MOSUNNY   71  42  35 NW20G26   29.78F
NEW ULM        MOSUNNY   70  43  37 NW22G28   29.78F
ST JAMES       MOSUNNY   73  39  29 W21G35    29.81S
FAIRMONT       MOSUNNY   73  42  32 W22       29.81F
GLENCOE        MOSUNNY   72  48  42 W16G29    29.75F
FARIBAULT      CLOUDY    72  45  37 W15G22    29.77F
OWATONNA       MOSUNNY   72  39  30 W25       29.77F
WASECA         PTSUNNY   72  41  33 W17G29    29.79F
ALBERT LEA     MOSUNNY   73  43  33 W13G25    29.79S
$$
MNZ078>079-086>088-094>096-282100-
   Southeast Minnesota

CITY           SKY/WX    TMP DP  RH WIND       PRES   REMARKS
ROCHESTER      PTSUNNY   71  45  39 NW23G30   29.76F
RED WING       CLOUDY    72  41  33 W14       29.72S
STANTON        CLOUDY    71  47  41 W16G22    29.74S
DODGE CENTER   MOSUNNY   70  43  37 W18G28    29.78S
WINONA         MOSUNNY   72  45  37 W16G22    29.73F
AUSTIN           N/A     72 N/A N/A NW16      29.78S
PRESTON        PTSUNNY   70  43  38 NW21G26   29.77S
$$
ABBREVIATIONS USED IN REMARKS
   TC - TEMPERATURES IN CELSIUS
  WCI - WIND CHILL INDEX
   HX - HEAT INDEX
  VSB - VISIBILITY
$$




USA.gov is the U.S. government's official web portal to all federal, state and local government web resources and services.